sat.trackr.live / text

‹ back to catalog

HULIANWANG DIGUI-22

NORAD 63689 · 2025-086C

PAYLOAD ACTIVE UNKNOWN

§ Identity

Operator
Country
PRC
Launch date
2025-04-28
Launch site
WSC
Launch vehicle
Mass (kg)
RCS (m²)

External: N2YO · Heavens-Above · Gunter

§ Orbital elements

Epoch: 2026-05-25T03:34:07.076064Z

Period
108.73 min
Inclination
86.5027°
Eccentricity
0.0001410
Mean motion
13.24408004 rev/d
Perigee alt
1,166.9 km
Apogee alt
1,169.0 km
Semi-major
7,546.1 km
B*
6.1462e-5
RAAN
320.8241°
Arg perigee
82.9336°
Mean anomaly
277.1958°
Rev number
5,181

§ Raw data

HULIANWANG DIGUI-221 63689U 25086C   26145.14869301  .00000041  00000+0  61462-4 0  99902 63689  86.5027 320.8241 0001410  82.9336 277.1958 13.24408004 51819

JSON: /api/v1/satellites/63689 · /tle

For live sub-satellite position, see the globe view (requires WebGL).

§ Visibility from observer

Set your observer location to see the next 7 days of passes ≥ 10°. The values pass through the URL so the page stays shareable.

No JS? Fill the form by hand. The geolocation button needs JavaScript.